Theta_e
325 324 332 333 332 318 320 318 317 318 318 316 315 314 314 314 316 312 321 326 323 322 324 326 326 329 328 326 325 324 323 323 322 323 322 322 324 326 328 330 331 331 332 330 331 333 334 336 338
323 329 330 325 329 317 317 314 317 316 316 313 315 316 317 317 319 319 318 320 320 319 318 324 326 326 326 326 325 327 328 328 327 325 323 323 324 326 327 328 328 329 331 331 330 331 333 334 337
327 333 331 329 324 327 318 313 315 315 314 315 315 317 318 319 318 319 319 319 317 315 315 317 318 321 327 334 333 330 329 329 328 327 324 323 324 326 326 327 328 328 329 329 330 331 332 333 335
330 329 322 330 330 321 315 313 314 315 315 312 315 319 319 319 319 319 317 317 315 314 314 316 321 326 331 334 333 331 330 329 327 326 325 324 324 325 326 326 326 327 328 328 330 330 331 332 334
328 321 327 328 327 315 311 313 312 314 315 314 317 319 319 318 319 318 317 316 315 314 314 319 323 328 335 334 332 330 326 325 324 324 324 325 324 325 325 325 325 325 326 328 328 331 330 332 335
324 322 329 331 328 317 314 313 313 314 313 317 318 318 318 318 318 317 317 318 317 316 318 318 322 324 327 330 327 325 324 324 324 323 323 325 325 324 324 325 325 324 324 327 327 328 330 332 333
326 326 330 329 328 315 315 312 313 313 313 315 316 317 316 316 315 315 314 313 313 313 315 316 314 316 323 327 321 319 319 323 325 323 324 325 324 325 325 325 325 325 324 327 328 330 331 332 331
323 325 326 319 318 315 315 312 313 314 314 315 316 316 315 313 313 313 314 315 315 316 318 319 317 317 318 317 318 320 322 322 323 322 322 324 324 325 325 325 324 324 324 327 328 330 332 331 331
318 323 325 324 315 315 313 314 313 315 315 316 315 314 313 313 313 314 315 317 318 319 321 321 320 318 318 319 320 320 320 320 322 320 319 320 320 321 322 324 324 325 325 327 329 330 332 332 331
321 322 324 320 313 315 313 313 314 317 317 315 314 313 312 313 314 314 316 318 320 321 320 320 319 319 320 320 320 319 319 319 319 319 318 317 315 317 320 322 322 323 325 327 328 330 332 332 331
320 324 321 319 314 313 313 313 314 316 317 314 313 313 312 313 313 315 318 319 321 320 319 319 320 320 321 320 319 319 318 318 318 317 318 318 318 315 320 321 321 322 325 326 329 330 331 331 330
323 321 319 319 317 312 313 313 317 316 315 315 312 312 312 312 313 315 318 320 320 319 319 319 319 321 321 320 320 320 319 318 318 318 319 319 318 318 315 317 321 322 323 325 326 326 329 330 330
321 319 317 316 312 314 313 315 317 316 316 314 311 312 312 311 314 317 319 321 319 318 319 318 320 321 322 320 321 322 321 321 320 320 321 320 320 320 318 319 320 322 324 324 325 326 327 329 331
320 317 317 314 314 314 315 316 317 316 315 313 312 312 312 312 314 317 320 320 319 318 318 318 320 321 321 321 322 322 322 321 321 321 320 320 321 321 322 322 322 323 324 324 325 326 326 329 330
317 319 317 317 314 315 314 315 316 316 314 313 312 312 312 312 314 318 321 320 320 318 318 318 322 322 322 321 322 323 322 322 322 321 319 319 320 322 322 323 323 324 325 325 325 325 326 328 331
318 316 317 317 315 315 314 315 315 314 314 313 312 312 312 312 315 318 321 320 319 318 318 320 323 322 322 321 323 324 324 323 323 323 323 323 324 323 323 324 324 324 325 326 327 326 327 328 331
316 320 318 318 314 315 314 316 315 314 315 314 312 313 312 312 314 318 321 321 320 318 318 321 323 323 324 324 324 325 325 325 324 324 324 324 324 324 325 325 324 325 325 327 327 328 327 329 331
320 319 318 318 317 315 314 314 314 316 315 315 312 313 313 313 314 318 321 321 321 319 318 318 322 322 322 324 324 325 325 325 325 324 324 324 324 325 325 326 326 326 327 327 327 327 328 330 331
319 319 319 320 318 316 315 315 316 315 314 314 312 312 312 313 314 318 321 321 321 321 319 319 323 323 323 323 324 325 325 325 325 324 324 323 323 325 325 323 322 327 327 328 327 328 329 330 330
317 318 318 317 317 315 317 316 314 315 315 314 312 312 312 313 313 316 320 322 321 319 321 317 321 321 322 324 324 325 326 325 325 324 325 324 325 325 327 326 326 327 328 328 327 329 329 329 329
319 319 318 318 317 315 315 315 315 315 315 315 312 312 312 312 313 314 317 319 321 318 318 320 316 316 317 325 325 325 326 326 325 322 326 327 324 325 327 327 328 328 328 329 327 329 330 329 329
320 318 319 319 318 318 315 317 315 316 316 317 312 311 312 311 313 313 315 316 321 321 318 317 317 318 319 325 326 326 326 326 326 326 326 327 327 327 327 327 328 327 328 329 328 329 329 329 328
320 319 318 318 317 316 317 315 316 319 320 317 315 311 311 310 312 314 314 316 321 322 319 319 320 319 320 326 325 325 325 326 327 325 326 325 326 326 327 327 327 327 327 327 328 329 329 329 328
319 318 315 315 314 316 315 316 316 317 319 318 317 312 311 310 311 313 316 316 318 323 320 320 323 319 322 325 324 321 321 321 326 327 326 324 325 325 326 327 326 328 328 328 328 328 328 328 328
316 314 317 317 318 320 317 318 317 318 317 318 319 313 311 311 311 313 313 314 316 322 320 320 323 320 320 324 325 321 321 322 323 325 327 327 328 327 327 327 328 327 328 328 327 327 327 327 328
314 314 316 318 316 315 319 322 320 319 321 320 318 314 311 311 311 313 313 315 317 319 323 321 321 321 318 322 324 319 319 320 320 323 329 329 328 328 327 326 326 328 329 328 328 328 328 327 327
317 315 314 315 317 319 319 321 323 325 324 320 315 313 312 311 310 313 314 315 317 318 322 323 323 321 319 319 320 320 319 318 319 320 326 328 328 328 328 328 329 329 330 327 328 328 328 328 327
317 315 317 313 319 320 319 323 325 322 325 323 318 313 312 311 310 312 313 315 317 318 319 322 323 320 319 319 318 319 319 318 318 319 321 327 326 324 322 326 328 329 330 330 328 329 329 329 327
318 319 319 314 315 317 318 322 320 325 327 327 321 314 312 312 312 312 313 316 317 317 319 320 324 321 319 318 319 319 319 317 318 320 319 322 322 322 322 324 326 327 328 328 328 328 328 328 327
318 318 320 319 319 320 319 321 321 326 328 328 324 314 312 312 312 312 313 315 316 316 318 320 323 319 317 317 318 319 319 318 317 320 319 321 321 320 320 323 326 326 327 327 327 326 324 324 326
Wind_Speed
9 7 2 3 3 4 3 6 1 2 2 2 3 4 6 5 6 5 1 8 3 6 11 17 19 19 17 17 16 16 17 16 15 14 12 12 11 11 11 10 10 10 11 11 10 8 6 4 3
7 4 2 2 4 2 5 4 5 6 3 3 4 2 2 2 3 2 3 7 6 7 8 16 20 19 21 19 18 18 17 16 16 15 14 14 13 13 13 12 11 10 11 12 11 10 8 6 5
6 4 3 3 3 4 5 6 7 3 4 3 3 2 2 2 2 8 5 6 7 5 4 9 13 19 20 18 18 19 18 18 18 18 17 16 15 14 13 13 12 12 11 12 13 11 10 8 7
3 4 4 3 5 6 6 5 4 2 1 4 3 2 1 4 4 7 6 8 10 7 8 11 15 18 17 17 17 19 19 20 20 20 19 18 17 16 15 14 11 11 12 13 14 13 12 11 9
3 3 3 1 5 4 5 4 7 6 1 2 4 3 2 2 3 4 4 7 10 10 10 10 13 14 15 16 18 20 21 23 23 21 21 20 19 18 17 17 15 14 13 14 15 14 15 14 10
3 3 3 3 6 5 5 5 6 5 4 2 3 5 3 2 2 1 1 4 4 2 1 4 9 13 15 16 18 21 23 25 25 24 24 23 21 21 19 18 16 15 15 15 16 17 17 16 14
4 4 4 4 5 6 5 5 5 6 3 4 7 5 2 1 3 6 6 4 4 3 3 3 9 12 15 16 18 18 20 19 18 22 26 25 23 23 22 19 15 15 16 17 18 18 17 16 16
4 4 3 4 5 7 5 5 1 6 6 3 5 5 5 4 10 9 7 5 3 1 4 7 10 10 10 12 17 16 18 19 16 18 18 20 22 24 25 21 17 15 17 17 18 18 17 18 16
3 3 3 5 3 7 1 3 1 1 5 1 0 4 3 16 11 7 4 4 3 5 8 9 7 9 14 17 15 16 17 16 14 16 19 22 22 23 21 21 21 16 17 17 18 18 19 18 16
4 3 7 6 6 6 4 5 7 3 3 1 2 5 11 11 8 6 3 4 7 8 9 7 9 12 15 14 14 15 13 12 10 13 14 15 17 18 22 25 23 17 17 16 17 19 20 18 16
6 5 7 8 8 7 5 2 4 6 4 7 9 8 6 8 7 5 2 2 6 8 8 10 9 12 14 12 13 12 10 10 11 12 11 11 11 11 15 16 19 17 16 17 18 20 20 18 18
3 9 6 8 7 7 6 6 5 5 7 4 8 9 7 7 6 5 2 2 5 8 8 10 7 11 13 10 10 11 11 11 11 9 6 7 7 8 12 14 13 14 14 15 17 21 21 19 19
5 5 1 4 7 4 6 5 4 8 4 6 9 7 9 7 8 6 3 1 6 9 8 10 8 11 13 9 11 12 11 10 8 6 4 2 2 4 8 10 11 11 10 12 15 18 19 19 19
7 4 2 2 1 2 5 1 3 6 6 7 9 9 7 7 9 6 3 0 6 7 8 10 8 10 13 9 10 11 10 6 6 6 5 4 4 5 7 10 12 11 10 11 14 16 18 20 19
3 3 5 1 4 3 4 3 9 4 7 9 9 6 7 7 9 7 4 1 4 6 8 10 10 9 12 8 9 9 8 6 5 4 5 5 5 6 7 7 10 11 11 12 14 16 16 18 19
4 5 3 4 4 3 6 10 6 9 11 11 8 7 7 6 8 7 5 0 3 5 8 10 9 9 10 8 9 9 7 6 5 4 4 6 7 9 7 8 10 12 13 14 18 19 19 20 21
7 3 4 6 7 2 5 9 3 7 11 9 8 7 7 6 5 7 6 2 2 4 7 9 10 10 10 9 8 8 7 5 4 4 5 7 7 5 9 11 12 14 18 19 22 23 23 22 23
4 3 3 4 3 4 3 13 6 6 10 9 8 8 7 7 7 10 8 4 1 3 6 9 9 11 12 9 7 6 6 6 7 6 2 2 2 4 13 14 15 17 23 23 26 28 25 25 27
4 3 5 4 5 5 7 10 16 6 6 8 9 9 8 8 7 9 8 5 2 2 4 8 9 12 13 10 9 8 11 10 11 8 7 3 4 8 15 15 12 16 24 27 30 30 29 27 33
3 3 5 6 3 6 8 10 9 7 9 11 13 9 9 6 6 8 9 6 3 3 2 3 5 10 14 12 8 7 12 10 10 9 10 9 10 15 13 14 15 19 26 29 30 30 26 29 28
5 3 5 7 1 3 1 7 5 5 3 4 6 7 6 10 9 7 9 7 5 2 2 3 4 8 10 12 9 9 8 10 11 8 13 15 18 14 16 18 21 22 27 24 30 23 30 25 26
4 8 6 4 2 4 4 5 6 5 6 7 8 10 11 9 6 6 9 8 9 2 3 3 3 7 7 9 11 11 11 12 10 10 9 18 19 18 19 13 16 22 22 27 25 24 26 31 22
10 4 6 3 4 2 2 2 7 2 7 10 12 12 11 11 10 9 11 13 10 5 3 1 4 6 3 7 10 13 12 14 9 10 11 12 13 15 13 16 14 17 22 25 28 25 30 31 22
3 3 6 4 4 1 7 7 5 5 8 7 4 11 12 12 9 8 17 12 9 9 4 3 2 3 4 5 7 9 8 10 13 11 12 10 5 5 8 8 11 16 25 29 28 24 20 23 20
5 6 4 4 3 5 3 3 8 9 9 9 8 13 14 12 10 8 8 11 11 12 9 5 3 2 3 4 2 6 8 9 11 10 13 8 5 5 4 4 6 12 19 26 28 25 21 19 24
7 9 5 6 3 5 3 5 6 6 5 8 6 10 13 12 10 9 11 16 15 13 13 8 4 4 4 5 5 5 7 8 10 10 11 11 11 17 14 13 7 6 16 19 21 18 16 15 23
5 4 6 4 1 2 3 7 10 3 5 5 7 11 14 13 10 10 12 18 16 15 14 12 7 5 5 6 7 6 5 6 9 10 12 11 14 14 10 7 5 8 15 20 19 20 16 13 17
9 7 2 2 2 4 4 4 6 8 5 4 6 8 11 9 9 8 10 19 18 17 13 10 11 7 7 7 7 6 4 4 7 9 9 13 11 7 8 9 8 8 14 18 20 17 16 12 20
3 3 5 4 4 5 3 6 6 4 9 8 9 10 13 15 13 10 11 22 20 16 15 11 13 10 9 8 8 7 5 5 5 9 10 10 8 9 12 13 11 14 15 17 18 18 21 19 21
7 10 9 5 5 3 4 7 5 6 9 6 6 8 7 9 13 10 14 20 18 16 16 14 16 12 10 8 9 7 7 5 6 8 11 11 15 15 14 14 16 17 18 21 22 22 21 24 25
Wind_Direction
148 137 122 1 47 61 274 265 277 246 300 211 129 152 187 150 163 213 1 174 195 217 223 229 226 226 239 244 247 248 248 250 261 271 260 253 249 255 259 259 263 261 254 253 253 254 252 268 272
144 107 59 78 83 43 273 249 225 218 214 98 98 79 109 216 131 177 153 162 197 235 256 225 227 236 240 238 240 247 241 243 251 258 260 254 248 243 249 255 260 262 258 249 254 251 247 245 253
130 52 73 83 107 201 229 229 209 251 224 184 133 54 158 191 138 173 195 213 233 244 228 233 239 242 243 234 239 245 247 251 254 258 259 255 249 240 240 246 253 259 258 256 245 248 246 241 243
124 35 42 95 222 261 219 249 197 255 257 204 150 181 307 220 176 185 204 225 230 229 237 236 239 241 243 240 245 253 255 257 260 262 262 258 250 242 239 242 247 259 261 250 252 239 241 241 236
63 58 49 7 251 248 256 255 173 188 241 214 147 205 218 268 166 183 242 271 257 262 254 239 237 242 245 249 255 256 263 265 264 263 259 252 245 241 239 245 249 255 265 255 250 240 234 236 228
57 104 45 304 277 279 259 204 165 189 209 178 106 136 232 272 159 299 20 80 70 56 233 244 244 253 254 252 261 270 273 273 267 260 257 250 239 236 236 238 245 250 254 256 241 235 230 231 230
118 99 213 246 272 300 236 158 194 187 188 233 154 143 251 135 120 115 104 77 66 73 14 279 242 245 246 254 267 277 280 283 275 269 257 254 245 235 238 235 237 248 249 251 237 241 230 228 225
124 100 139 241 254 266 230 181 214 152 215 96 143 196 226 163 129 118 103 83 89 344 313 294 270 265 285 293 292 285 286 287 289 280 267 258 260 251 239 237 235 247 246 247 238 241 231 223 220
131 74 216 247 201 249 242 165 277 9 129 91 302 146 150 138 139 125 96 51 13 335 320 306 282 297 309 311 304 297 298 290 280 278 273 274 266 254 249 240 238 237 244 243 235 236 223 217 213
120 135 223 200 198 236 215 190 174 170 141 80 69 70 121 130 136 113 81 18 349 336 332 323 307 311 316 315 314 315 303 291 275 279 280 279 272 254 243 238 239 241 243 238 236 225 211 209 201
184 201 209 230 213 187 196 232 174 134 252 210 194 164 130 127 129 125 85 339 325 328 320 327 311 318 322 324 331 331 321 306 295 293 279 272 278 260 228 226 229 228 230 233 227 208 204 199 197
175 238 188 252 186 147 188 134 196 201 229 219 165 146 139 153 160 149 186 310 310 327 341 337 314 326 335 326 332 332 322 310 301 287 284 278 263 238 212 213 216 216 226 230 216 202 196 194 192
192 259 190 242 156 173 122 198 193 237 332 111 123 141 154 162 168 178 193 292 335 343 349 343 324 329 338 330 330 322 318 304 294 285 272 252 199 178 188 195 203 209 210 198 200 193 190 190 188
209 202 56 55 168 179 154 185 141 238 138 132 147 173 167 164 185 185 183 84 348 356 352 349 335 334 341 336 331 332 328 319 304 283 257 246 213 186 188 196 198 195 189 182 188 186 189 188 187
93 105 36 262 149 246 114 298 235 190 159 161 178 165 165 194 197 181 198 127 356 17 1 357 351 341 346 337 334 337 336 353 345 305 257 242 244 245 233 210 193 188 187 181 176 181 184 176 181
88 53 96 279 154 256 141 263 266 183 166 189 176 171 176 196 202 182 196 187 18 22 4 9 359 355 353 342 343 341 352 360 341 322 283 264 264 256 222 189 179 185 181 176 173 172 170 178 169
14 220 209 310 204 135 176 265 277 173 183 185 174 177 181 197 208 198 198 205 20 17 359 9 3 2 351 347 343 355 9 2 346 335 293 273 277 242 188 177 177 177 169 168 171 169 168 165 155
233 226 228 242 241 186 223 265 257 200 199 193 174 175 186 196 208 199 196 204 344 8 1 1 352 355 343 331 339 351 2 8 11 351 23 117 142 163 165 159 156 166 165 167 167 162 163 152 140
195 196 247 266 242 178 235 252 273 206 208 188 186 181 190 202 210 200 200 207 281 336 353 19 26 11 359 350 357 1 3 2 33 36 43 332 181 159 162 158 156 163 165 162 161 158 149 143 138
160 222 264 274 278 163 271 271 263 187 224 204 190 185 188 188 182 200 202 201 244 2 308 1 6 1 1 4 360 1 355 9 46 61 59 70 104 140 141 146 149 163 154 152 157 150 150 141 137
198 173 233 239 320 239 151 307 301 269 242 179 185 179 167 187 184 198 199 205 217 35 15 356 349 342 351 9 23 21 40 55 81 61 68 59 101 105 109 131 140 139 148 135 152 151 144 135 133
254 217 229 267 47 271 133 271 286 284 278 228 195 184 182 184 182 195 191 199 206 152 63 46 2 343 350 29 47 64 42 64 74 82 75 77 82 78 89 110 134 141 139 132 150 136 142 140 133
232 144 196 227 205 109 270 73 262 352 284 259 215 194 184 180 179 192 192 202 199 191 118 95 20 28 61 76 69 64 56 68 71 67 79 79 79 76 88 89 109 125 133 150 161 120 137 142 134
166 107 49 55 97 60 235 160 278 221 217 260 180 187 185 174 185 196 194 199 196 193 162 136 49 41 116 102 72 58 49 65 80 68 76 50 24 37 56 86 104 109 139 137 140 119 132 153 138
96 71 338 338 6 223 108 101 235 255 244 231 229 190 174 170 176 187 183 199 197 194 185 170 113 105 136 187 122 71 64 58 64 73 105 122 145 193 153 120 123 124 128 135 118 124 125 137 150
181 155 158 230 231 260 138 230 250 229 308 283 222 176 157 164 179 183 187 198 197 201 201 198 165 155 156 149 137 106 87 77 72 75 89 96 128 138 136 162 181 168 142 148 159 140 140 151 168
177 153 197 138 154 61 243 287 311 268 7 19 106 141 169 168 178 184 189 199 200 205 205 206 197 182 173 170 158 142 124 89 78 89 97 96 111 143 153 177 178 169 151 161 166 171 165 167 163
166 161 112 18 194 228 277 286 240 300 304 174 163 180 174 162 177 184 190 200 206 209 208 202 205 201 190 174 166 159 146 133 82 91 116 124 125 121 131 144 147 142 159 169 176 186 177 175 167
124 162 58 124 148 187 235 257 218 224 251 233 195 192 183 177 182 183 194 201 209 212 206 203 200 204 205 191 175 165 156 150 113 97 111 116 107 103 114 125 123 121 122 138 147 138 140 142 158
208 189 171 163 229 208 185 261 242 262 272 209 168 189 179 196 181 176 191 194 205 211 199 201 198 198 204 197 183 176 162 157 152 111 110 114 118 106 106 125 127 125 123 126 124 127 124 123 131